TimeEST,TemperatureF,Dew PointF,Humidity,Sea Level PressureIn,VisibilityMPH,Wind Direction,Wind SpeedMPH,Gust SpeedMPH,PrecipitationIn,Events,Conditions,WindDirDegrees,DateUTC
12:53 AM,32.0,30.0,92,29.98,2.5,WNW,3.5,-,0.00,Snow,Light Snow,300,2013-03-02 05:53:00
1:06 AM,30.2,30.2,100,29.95,3.0,WNW,4.6,-,0.00,Snow,Light Snow,300,2013-03-02 06:06:00
1:53 AM,30.9,30.0,96,29.98,4.0,WNW,4.6,-,0.01,Snow,Light Snow,290,2013-03-02 06:53:00
2:05 AM,30.2,30.2,100,29.95,4.0,WNW,4.6,-,0.00,Snow,Light Snow,300,2013-03-02 07:05:00
2:22 AM,30.2,30.2,100,29.95,5.0,WNW,4.6,-,0.00,Snow,Light Snow,300,2013-03-02 07:22:00
2:31 AM,30.2,30.2,100,29.95,4.0,WNW,4.6,-,0.00,Snow,Light Snow,290,2013-03-02 07:31:00
2:53 AM,30.9,30.0,96,29.96,3.0,WNW,4.6,-,0.00,Snow,Light Snow,290,2013-03-02 07:53:00
3:18 AM,30.2,30.2,100,29.94,2.0,West,4.6,-,0.00,Snow,Light Snow,280,2013-03-02 08:18:00
3:46 AM,30.2,30.2,100,29.93,1.5,WNW,4.6,-,0.00,Snow,Light Snow,300,2013-03-02 08:46:00
4:11 AM,30.2,30.2,100,29.93,2.0,NNW,3.5,-,0.00,Snow,Light Snow,340,2013-03-02 09:11:00
4:26 AM,30.2,30.2,100,29.93,3.0,North,5.8,-,0.00,Snow,Light Snow,360,2013-03-02 09:26:00
4:45 AM,30.2,28.4,93,29.93,8.0,NNE,4.6,-,0.00,,Overcast,30,2013-03-02 09:45:00
4:53 AM,30.9,28.9,92,29.95,10.0,NNE,4.6,-,0.00,,Overcast,30,2013-03-02 09:53:00
5:53 AM,30.0,28.0,92,29.97,4.0,NNE,4.6,-,N/A,,Overcast,20,2013-03-02 10:53:00
6:26 AM,30.2,28.4,93,29.95,2.5,NNE,8.1,-,0.00,Snow,Light Snow,20,2013-03-02 11:26:00
6:45 AM,30.2,26.6,86,29.95,3.0,NNE,10.4,-,0.00,Snow,Light Snow,20,2013-03-02 11:45:00
7:00 AM,28.4,26.6,93,29.95,5.0,North,8.1,-,0.00,Snow,Light Snow,10,2013-03-02 12:00:00
7:07 AM,28.4,26.6,93,29.96,5.0,North,10.4,16.1,0.00,Snow,Light Snow,10,2013-03-02 12:07:00
7:21 AM,28.4,26.6,93,29.96,3.0,North,8.1,-,0.00,Snow,Light Snow,10,2013-03-02 12:21:00
7:50 AM,28.4,26.6,93,29.97,3.0,North,5.8,-,0.01,Snow,Light Snow,10,2013-03-02 12:50:00
7:53 AM,28.9,26.1,89,30.00,3.0,North,5.8,-,0.01,Snow,Light Snow,10,2013-03-02 12:53:00
8:00 AM,28.4,26.6,93,29.97,2.0,North,6.9,-,0.00,Snow,Light Snow,360,2013-03-02 13:00:00
8:49 AM,28.4,26.6,93,29.98,3.0,NNE,5.8,-,0.00,Snow,Light Snow,20,2013-03-02 13:49:00
8:53 AM,28.9,26.1,89,30.01,3.0,North,8.1,-,0.00,Snow,Light Snow,360,2013-03-02 13:53:00
8:55 AM,28.4,26.6,93,29.98,2.5,North,8.1,-,0.00,Snow,Light Snow,360,2013-03-02 13:55:00
9:24 AM,30.2,26.6,86,29.98,2.5,North,6.9,-,0.00,Snow,Light Snow,10,2013-03-02 14:24:00
9:31 AM,30.2,26.6,86,29.98,3.0,North,5.8,-,0.00,Snow,Light Snow,360,2013-03-02 14:31:00
9:50 AM,30.2,26.6,86,29.99,4.0,NNW,5.8,-,0.00,Snow,Light Snow,330,2013-03-02 14:50:00
9:53 AM,30.0,26.1,85,30.01,5.0,NNW,8.1,-,0.00,Snow,Light Snow,340,2013-03-02 14:53:00
10:40 AM,30.2,24.8,80,29.99,9.0,NNW,9.2,-,0.00,,Overcast,330,2013-03-02 15:40:00
10:53 AM,30.0,25.0,82,30.02,6.0,North,9.2,-,0.00,,Haze,360,2013-03-02 15:53:00
11:53 AM,30.0,23.0,75,30.03,10.0,Variable,6.9,-,0.00,,Overcast,0,2013-03-02 16:53:00
12:53 PM,30.0,23.0,75,30.03,10.0,NW,10.4,-,N/A,,Overcast,320,2013-03-02 17:53:00
1:53 PM,30.0,23.0,75,30.02,10.0,NNW,8.1,-,0.00,,Overcast,330,2013-03-02 18:53:00
2:53 PM,28.9,24.1,82,30.02,5.0,North,5.8,-,0.00,Snow,Light Snow,10,2013-03-02 19:53:00
3:53 PM,28.9,23.0,78,30.03,5.0,North,9.2,-,0.00,Snow,Light Snow,350,2013-03-02 20:53:00
4:05 PM,28.4,23.0,80,30.00,4.0,North,5.8,-,0.00,Snow,Light Snow,350,2013-03-02 21:05:00
4:43 PM,28.4,24.8,86,30.00,4.0,NW,5.8,-,0.00,Snow,Light Snow,320,2013-03-02 21:43:00
4:53 PM,28.9,23.0,78,30.04,4.0,NW,6.9,-,0.00,Snow,Light Snow,310,2013-03-02 21:53:00
5:53 PM,28.0,23.0,81,30.06,3.0,NNW,5.8,-,0.00,Snow,Light Snow,340,2013-03-02 22:53:00
6:16 PM,26.6,24.8,93,30.03,2.0,NNW,8.1,-,0.00,Snow,Light Snow,330,2013-03-02 23:16:00
6:27 PM,26.6,23.0,86,30.03,4.0,NNW,6.9,-,0.00,Snow,Light Snow,330,2013-03-02 23:27:00
6:36 PM,26.6,23.0,86,30.03,4.0,NNW,5.8,-,0.00,Snow,Light Snow,330,2013-03-02 23:36:00
6:53 PM,27.0,21.9,81,30.07,5.0,NNW,9.2,-,0.00,Snow,Light Snow,330,2013-03-02 23:53:00
7:01 PM,26.6,21.2,80,30.04,7.0,NNW,6.9,-,0.00,,Overcast,340,2013-03-03 00:01:00
8:03 PM,26.6,21.2,80,30.05,6.0,NNW,8.1,-,0.00,Snow,Light Snow,330,2013-03-03 01:03:00
8:18 PM,26.6,21.2,80,30.05,8.0,NNW,8.1,-,0.00,Snow,Light Snow,340,2013-03-03 01:18:00
8:53 PM,27.0,21.0,78,30.09,10.0,NNW,6.9,-,0.00,,Overcast,340,2013-03-03 01:53:00
9:53 PM,26.1,21.9,84,30.10,5.0,Variable,4.6,-,0.00,Snow,Light Snow,0,2013-03-03 02:53:00
10:53 PM,26.1,19.9,78,30.09,10.0,NW,6.9,-,0.00,,Overcast,320,2013-03-03 03:53:00
11:53 PM,26.1,19.9,78,30.09,10.0,NW,5.8,-,N/A,,Overcast,310,2013-03-03 04:53:00